sat.trackr.live / text

‹ back to catalog

STARLINK-5621

NORAD 55434 · 2023-014AV

PAYLOAD ACTIVE UNKNOWN

§ Identity

Operator
Country
US
Launch date
2023-01-31
Launch site
AFWTR
Launch vehicle
Mass (kg)
RCS (m²)

Purposes: comms

External: N2YO · Heavens-Above · Gunter

§ Orbital elements

Epoch: 2026-05-25T02:23:39.821280Z

Period
96.11 min
Inclination
69.9990°
Eccentricity
0.0003141
Mean motion
14.98331332 rev/d
Perigee alt
569.9 km
Apogee alt
574.2 km
Semi-major
6,950.2 km
B*
4.5553e-5
RAAN
271.8159°
Arg perigee
269.2920°
Mean anomaly
90.7879°
Rev number
18,251

§ Raw data

STARLINK-56211 55434U 23014AV  26145.09976645  .00000451  00000+0  45553-4 0  99902 55434  69.9990 271.8159 0003141 269.2920  90.7879 14.98331332182511

JSON: /api/v1/satellites/55434 · /tle

For live sub-satellite position, see the globe view (requires WebGL).

§ Visibility from observer

Set your observer location to see the next 7 days of passes ≥ 10°. The values pass through the URL so the page stays shareable.

No JS? Fill the form by hand. The geolocation button needs JavaScript.